Weather History for Ruston, LA

Change the Weather History Date:

Sunday, October 28, 2012

  Actual Average Record
Temperature  
Mean Temperature 48 °F -  
Max Temperature 60 °F 73 °F 87 °F (1952)
Min Temperature 35 °F 48 °F 29 °F (1957)
Degree Days  
Heating Degree Days 18    
Moisture  
Dew Point 35 °F    
Average Humidity 75    
Maximum Humidity 100    
Minimum Humidity 28    
Precipitation  
Precipitation 0.00 in - - ()
Sea Level Pressure  
Sea Level Pressure 30.22 in    
Wind  
Wind Speed 3 mph (North)    
Max Wind Speed 12 mph    
Max Gust Speed 18 mph    
Visibility 10 miles    
Events      
Averages and records for this station are not official NWS values.
T = Trace of Precipitation, MM = Missing Value Source: NWS Daily Summary

Daily Weather History Graph

Daily Weather History Graph

Search for Another Location

Airport:

Trip Planner

Search our weather history database for the weather conditions in past years. The results will help you decide how hot, cold, wet, or windy it might be!

Date:

Astronomy

Oct. 28, 2012 Rise Set
Actual Time 7:24 AM CDT 6:22 PM CDT
Civil Twilight 6:59 AM CDT 6:48 PM CDT
Nautical Twilight 6:30 AM CDT 7:17 PM CDT
Astronomical Twilight 6:01 AM CDT 7:45 PM CDT
Moon 5:40 PM CDT 6:19 AM CDT
Length of Visible Light 11h 48m
Length of Day
10h 58m
Waxing Gibbous, 99% of the Moon is Illuminated
Oct 28
Waxing Gibbous
Oct 29
Full
Nov 6
Last Quarter
Nov 13
New
Nov 20
First Quarter

Hourly Weather History & Observations

Time (CDT) Temp. Windchill Dew Point Humidity Pressure Visibility Wind Dir Wind Speed Gust Speed Precip Events Conditions
12:15 AM 40.3 °F - 37.2 °F 89% 30.20 in 10.0 mi Calm Calm - N/A   Clear
12:35 AM 40.3 °F - 37.6 °F 90% 30.20 in 10.0 mi Calm Calm - N/A   Clear
12:55 AM 40.5 °F - 37.0 °F 88% 30.20 in 10.0 mi Calm Calm - N/A   Clear
1:15 AM 40.1 °F - 36.9 °F 88% 30.20 in 10.0 mi Calm Calm - N/A   Clear
1:35 AM 40.1 °F - 36.5 °F 87% 30.20 in 10.0 mi Calm Calm - N/A   Clear
1:55 AM 38.1 °F - 35.8 °F 91% 30.19 in 10.0 mi Calm Calm - N/A   Clear
2:15 AM 37.2 °F - 37.2 °F 100% 30.19 in 10.0 mi Calm Calm - N/A   Clear
2:35 AM 39.2 °F - 37.0 °F 92% 30.19 in 10.0 mi Calm Calm - N/A   Clear
2:55 AM 38.1 °F - 36.7 °F 95% 30.19 in 10.0 mi Calm Calm - N/A   Clear
3:15 AM 37.9 °F - 36.5 °F 95% 30.20 in 10.0 mi Calm Calm - N/A   Clear
3:35 AM 36.7 °F - 36.3 °F 99% 30.20 in 10.0 mi Calm Calm - N/A   Clear
3:55 AM 36.7 °F - 36.5 °F 99% 30.20 in 10.0 mi Calm Calm - N/A   Clear
4:15 AM 36.9 °F - 36.5 °F 99% 30.20 in 10.0 mi Calm Calm - N/A   Clear
4:35 AM 36.7 °F - 35.4 °F 95% 30.20 in 10.0 mi Calm Calm - N/A   Clear
4:55 AM 36.9 °F - 36.0 °F 97% 30.19 in 10.0 mi Calm Calm - N/A   Clear
5:15 AM 36.5 °F - 35.1 °F 95% 30.20 in 10.0 mi Calm Calm - N/A   Clear
5:35 AM 36.5 °F - 34.9 °F 94% 30.20 in 10.0 mi Calm Calm - N/A   Clear
5:55 AM 36.0 °F - 35.1 °F 97% 30.21 in 10.0 mi Calm Calm - N/A   Clear
6:15 AM 35.8 °F 33.0 °F 35.2 °F 98% 30.22 in 10.0 mi NNW 3.5 mph - N/A   Clear
6:35 AM 35.6 °F - 34.7 °F 97% 30.22 in 10.0 mi Calm Calm - N/A   Clear
6:55 AM 35.4 °F - 34.5 °F 97% 30.22 in 10.0 mi Calm Calm - N/A   Clear
7:15 AM 35.1 °F 32.2 °F 35.1 °F 100% 30.23 in 10.0 mi NW 3.5 mph - N/A   Clear
7:35 AM 35.1 °F - 34.7 °F 99% 30.23 in 10.0 mi Calm Calm - N/A   Clear
7:55 AM 35.4 °F - 35.4 °F 100% 30.24 in 10.0 mi Calm Calm - N/A   Clear
8:15 AM 37.0 °F 34.5 °F 35.1 °F 93% 30.25 in 10.0 mi NNW 3.5 mph - N/A   Clear
8:35 AM 39.2 °F 34.2 °F 35.2 °F 86% 30.25 in 10.0 mi North 6.9 mph - N/A   Clear
8:55 AM 41.2 °F 35.0 °F 35.6 °F 81% 30.25 in 10.0 mi North 10.4 mph - N/A   Clear
9:15 AM 42.4 °F 36.1 °F 35.2 °F 76% 30.26 in 10.0 mi North 11.5 mph - N/A   Clear
9:35 AM 43.9 °F 38.3 °F 35.4 °F 72% 30.26 in 10.0 mi North 10.4 mph - N/A   Clear
9:55 AM 45.5 °F 39.9 °F 35.6 °F 68% 30.26 in 10.0 mi North 11.5 mph - N/A   Clear
10:15 AM 47.5 °F - 35.4 °F 63% 30.26 in 10.0 mi NNE 11.5 mph - N/A   Clear
10:35 AM 48.4 °F - 34.9 °F 60% 30.26 in 10.0 mi North 10.4 mph - N/A   Clear
10:55 AM 50.4 °F - 34.9 °F 55% 30.26 in 10.0 mi NNE 8.1 mph - N/A   Clear
11:15 AM 52.0 °F - 33.8 °F 50% 30.26 in 10.0 mi North 10.4 mph 16.1 mph N/A   Clear
11:35 AM 52.3 °F - 32.9 °F 48% 30.27 in 10.0 mi NNW 11.5 mph - N/A   Clear
12:15 PM 55.2 °F - 33.3 °F 43% 30.25 in 10.0 mi NNW 8.1 mph 16.1 mph N/A   Clear
12:35 PM 55.2 °F - 32.0 °F 41% 30.25 in 10.0 mi NNW 10.4 mph - N/A   Clear
12:55 PM 56.1 °F - 31.8 °F 40% 30.24 in 10.0 mi North 9.2 mph - N/A   Clear
1:15 PM 57.2 °F - 30.4 °F 36% 30.23 in 10.0 mi North 9.2 mph - N/A   Clear
1:35 PM 57.6 °F - 29.8 °F 35% 30.23 in 10.0 mi North 8.1 mph 18.4 mph N/A   Clear
1:55 PM 58.1 °F - 30.9 °F 36% 30.23 in 10.0 mi NNW 9.2 mph - N/A   Clear
2:15 PM 58.1 °F - 30.2 °F 35% 30.22 in 10.0 mi North 10.4 mph - N/A   Clear
2:35 PM 58.8 °F - 29.1 °F 32% 30.21 in 10.0 mi NNW 8.1 mph - N/A   Clear
2:55 PM 59.7 °F - 28.2 °F 30% 30.21 in 10.0 mi North 8.1 mph - N/A   Clear
3:15 PM 60.3 °F - 26.8 °F 28% 30.20 in 10.0 mi North 10.4 mph - N/A   Clear
3:35 PM 60.1 °F - 26.8 °F 28% 30.20 in 10.0 mi North 10.4 mph - N/A   Clear
3:55 PM 60.3 °F - 29.8 °F 32% 30.20 in 10.0 mi North 8.1 mph - N/A   Clear
4:15 PM 60.1 °F - 30.0 °F 32% 30.20 in 10.0 mi North 11.5 mph 16.1 mph N/A   Clear
4:35 PM 59.2 °F - 29.1 °F 32% 30.20 in 10.0 mi North 6.9 mph - N/A   Clear
4:55 PM 59.0 °F - 30.2 °F 34% 30.20 in 10.0 mi North 6.9 mph - N/A   Clear
5:15 PM 58.1 °F - 29.8 °F 34% 30.20 in 10.0 mi North 6.9 mph - N/A   Clear
5:35 PM 56.8 °F - 29.8 °F 36% 30.20 in 10.0 mi North 8.1 mph - N/A   Clear
5:55 PM 54.7 °F - 32.2 °F 42% 30.20 in 10.0 mi North 4.6 mph - N/A   Clear
6:15 PM 52.2 °F - 34.0 °F 50% 30.21 in 10.0 mi Calm Calm - N/A   Clear
6:35 PM 50.0 °F - 36.9 °F 61% 30.21 in 10.0 mi Calm Calm - N/A   Clear
6:55 PM 46.0 °F - 39.9 °F 79% 30.21 in 10.0 mi Calm Calm - N/A   Clear
7:15 PM 44.6 °F - 40.1 °F 84% 30.21 in 10.0 mi Calm Calm - N/A   Clear
7:35 PM 43.7 °F - 40.1 °F 87% 30.21 in 10.0 mi Calm Calm - N/A   Clear
7:55 PM 42.8 °F - 40.1 °F 90% 30.22 in 10.0 mi Calm Calm - N/A   Clear
8:15 PM 42.1 °F - 40.1 °F 93% 30.22 in 10.0 mi Calm Calm - N/A   Clear
8:35 PM 41.0 °F - 39.9 °F 96% 30.23 in 10.0 mi Calm Calm - N/A   Clear
8:55 PM 41.0 °F - 40.3 °F 97% 30.23 in 10.0 mi Calm Calm - N/A   Clear
9:15 PM 40.1 °F - 39.7 °F 99% 30.24 in 10.0 mi Calm Calm - N/A   Clear
9:35 PM 40.1 °F - 40.1 °F 100% 30.24 in 10.0 mi Calm Calm - N/A   Clear
9:55 PM 39.4 °F - 39.4 °F 100% 30.24 in 10.0 mi Calm Calm - N/A   Clear
10:15 PM 38.7 °F - 38.7 °F 100% 30.24 in 10.0 mi Calm Calm - N/A   Clear
10:35 PM 38.3 °F - 38.3 °F 100% 30.25 in 10.0 mi Calm Calm - N/A   Clear
10:55 PM 37.6 °F - 37.6 °F 100% 30.25 in 10.0 mi Calm Calm - N/A   Clear
11:15 PM 37.6 °F - 37.6 °F 100% 30.25 in 10.0 mi Calm Calm - N/A   Clear
11:35 PM 37.0 °F - 37.0 °F 100% 30.25 in 10.0 mi Calm Calm - N/A   Clear
11:55 PM 37.4 °F - 37.4 °F 100% 30.25 in 10.0 mi Calm Calm - N/A   Clear